{"data":{"norad_id":67175,"epoch":"2026-05-24T23:48:49.546368Z","epoch_age_seconds":65781,"freshness":"FRESH","line1":"1 67175U 25303N   26144.99224012  .00013461  00000+0  49730-3 0  9995","line2":"2 67175  43.0010 239.8819 0002270 265.0934  94.9659 15.27611435 24403","mean_motion":15.27611435,"eccentricity":0.000227,"inclination_deg":43.001,"raan_deg":239.8819,"arg_perigee_deg":265.0934,"mean_anomaly_deg":94.9659,"bstar":0.0004973,"rev_number":2440,"period_min":94.264808904105,"perigee_km":481.39750207792,"apogee_km":484.51243783228,"semimajor_km":6861.0919699551,"source":"CELESTRAK","updated_at":"2026-05-25T13:38:21.482243Z"}}